• In Portugal
  • List of Countries
  • For 7 days
  • Water Temperature
  • Satellite Maps
  • Weather Map
  • Weather Widgets
  • user-avatar
    Login

    Hourly Weather Armawir

    Today, 22 November, Wednesday

    Time Temperature Precipitation Wind Pressure Humidity
    00:00 +10°C° 0.1 mm 3 mps 678 mmHg 75%
    01:00 +10°C° 0.5 mm 3 mps 678 mmHg 76%
    02:00 +10°C° 0.5 mm 3 mps 678 mmHg 77%
    03:00 +9°C° 0.5 mm 2 mps 678 mmHg 78%
    04:00 +9°C° 1.3 mm 3 mps 678 mmHg 79%
    05:00 +8°C° 1.3 mm 3 mps 678 mmHg 80%
    06:00 +8°C° 1.3 mm 3 mps 678 mmHg 81%
    07:00 +7°C° 1.3 mm 3 mps 678 mmHg 80%
    08:00 +7°C° 1.3 mm 3 mps 678 mmHg 79%
    09:00 +7°C° 1.3 mm 3 mps 679 mmHg 79%
    10:00 +7°C° 0.7 mm 3 mps 679 mmHg 76%
    11:00 +7°C° 0.7 mm 3 mps 679 mmHg 73%
    12:00 +7°C° 0.7 mm 3 mps 679 mmHg 70%
    13:00 +7°C° 0.2 mm 3 mps 679 mmHg 68%
    14:00 +7°C° 0.2 mm 3 mps 679 mmHg 66%
    15:00 +7°C° 0.2 mm 2 mps 679 mmHg 65%
    16:00 +7°C° 0.2 mm 3 mps 680 mmHg 66%
    17:00 +5°C° 0.2 mm 3 mps 680 mmHg 68%
    18:00 +4°C° 0.2 mm 3 mps 681 mmHg 70%
    19:00 +4°C° 0.1 mm 3 mps 681 mmHg 70%
    20:00 +4°C° 0.1 mm 2 mps 682 mmHg 71%
    21:00 +4°C° 0.1 mm 2 mps 682 mmHg 71%
    22:00 +3°C° 0.1 mm 2 mps 682 mmHg 71%
    23:00 +3°C° 0.1 mm 2 mps 682 mmHg 71%

    Tomorrow, 23 November, Thursday

    Time Temperature Precipitation Wind Pressure Humidity
    00:00 +3°C° 0.1 mm 1 mps 682 mmHg 71%
    01:00 +3°C° 0 mm 1 mps 683 mmHg 71%
    02:00 +3°C° 0 mm 1 mps 683 mmHg 71%
    03:00 +2°C° 0 mm 1 mps 683 mmHg 70%
    04:00 +2°C° 0 mm 1 mps 683 mmHg 70%
    05:00 +1°C° 0 mm 1 mps 683 mmHg 69%
    06:00 +1°C° 0 mm 1 mps 683 mmHg 68%
    07:00 +1°C° 0 mm 1 mps 684 mmHg 67%
    08:00 +1°C° 0 mm 2 mps 684 mmHg 66%
    09:00 +2°C° 0 mm 2 mps 685 mmHg 64%
    10:00 +3°C° 0.1 mm 2 mps 684 mmHg 61%
    11:00 +2°C° 0.1 mm 3 mps 684 mmHg 58%
    12:00 +3°C° 0.1 mm 3 mps 684 mmHg 55%
    13:00 +3°C° 0.1 mm 3 mps 684 mmHg 55%
    14:00 +4°C° 0.1 mm 3 mps 684 mmHg 54%
    15:00 +4°C° 0.1 mm 3 mps 683 mmHg 54%
    16:00 +3°C° 0.1 mm 3 mps 684 mmHg 57%
    17:00 +3°C° 0.1 mm 2 mps 684 mmHg 61%
    18:00 +2°C° 0.1 mm 2 mps 685 mmHg 65%
    19:00 +2°C° 0.2 mm 2 mps 685 mmHg 66%
    20:00 +3°C° 0.2 mm 1 mps 685 mmHg 67%
    21:00 +3°C° 0.2 mm 1 mps 686 mmHg 69%
    22:00 +2°C° 0.2 mm 1 mps 686 mmHg 70%
    23:00 +2°C° 0.2 mm 1 mps 686 mmHg 71%

    Day after tomorrow, 24 November, Friday

    Time Temperature Precipitation Wind Pressure Humidity
    00:00 +2°C° 0.2 mm 1 mps 686 mmHg 72%
    01:00 +2°C° 0.2 mm 1 mps 686 mmHg 73%
    02:00 +1°C° 0.2 mm 1 mps 686 mmHg 75%
    03:00 +1°C° 0.2 mm 1 mps 686 mmHg 76%
    04:00 +1°C° 0.3 mm 1 mps 686 mmHg 76%
    05:00 0°C° 0.3 mm 1 mps 686 mmHg 77%
    06:00 0°C° 0.3 mm 1 mps 686 mmHg 77%
    07:00 +1°C° 0.2 mm 1 mps 687 mmHg 74%
    08:00 +1°C° 0.2 mm 1 mps 687 mmHg 71%
    09:00 +1°C° 0.2 mm 1 mps 687 mmHg 69%
    10:00 +2°C° 0.1 mm 1 mps 687 mmHg 66%
    11:00 +2°C° 0.1 mm 1 mps 687 mmHg 63%
    12:00 +3°C° 0.1 mm 1 mps 687 mmHg 61%
    13:00 +3°C° 0.1 mm 1 mps 687 mmHg 60%
    14:00 +3°C° 0.1 mm 1 mps 687 mmHg 59%
    15:00 +3°C° 0.1 mm 1 mps 687 mmHg 58%
    16:00 +2°C° 0.1 mm 1 mps 687 mmHg 61%
    17:00 +1°C° 0.1 mm 1 mps 688 mmHg 63%
    18:00 0°C° 0.1 mm 1 mps 688 mmHg 65%
    19:00 0°C° 0.1 mm 1 mps 688 mmHg 66%
    20:00 0°C° 0.1 mm 1 mps 689 mmHg 67%
    21:00 -1°C° 0.1 mm 1 mps 689 mmHg 67%
    22:00 -1°C° 0.1 mm 1 mps 689 mmHg 68%
    23:00 -1°C° 0.1 mm 1 mps 690 mmHg 69%

    25 November, Saturday

    Time Temperature Precipitation Wind Pressure Humidity
    00:00 -1°C° 0.1 mm 1 mps 690 mmHg 70%
    01:00 -2°C° 0.1 mm 1 mps 690 mmHg 70%
    02:00 -2°C° 0.1 mm 1 mps 691 mmHg 70%
    03:00 -2°C° 0.1 mm 1 mps 691 mmHg 70%
    04:00 -5°C° 0 mm 2 mps 691 mmHg 70%
    05:00 -5°C° 0 mm 2 mps 692 mmHg 70%
    06:00 -5°C° 0 mm 2 mps 692 mmHg 70%
    07:00 -4°C° 0 mm 2 mps 693 mmHg 67%
    08:00 -4°C° 0 mm 2 mps 693 mmHg 64%
    09:00 -1°C° 0 mm 1 mps 694 mmHg 61%
    10:00 0°C° 0 mm 1 mps 694 mmHg 58%
    11:00 +1°C° 0 mm 1 mps 693 mmHg 54%
    12:00 +2°C° 0 mm 1 mps 693 mmHg 51%
    13:00 +2°C° 0 mm 1 mps 693 mmHg 51%
    14:00 +2°C° 0 mm 1 mps 693 mmHg 50%
    15:00 +2°C° 0 mm 1 mps 693 mmHg 49%
    16:00 -1°C° 0 mm 2 mps 693 mmHg 51%
    17:00 -2°C° 0 mm 2 mps 694 mmHg 53%
    18:00 -4°C° 0 mm 2 mps 694 mmHg 54%
    19:00 -4°C° 0 mm 2 mps 695 mmHg 54%
    20:00 -4°C° 0 mm 2 mps 695 mmHg 54%
    21:00 -5°C° 0 mm 2 mps 695 mmHg 54%
    22:00 -5°C° 0 mm 2 mps 695 mmHg 55%
    23:00 -3°C° 0 mm 1 mps 695 mmHg 55%

    26 November, Sunday

    Time Temperature Precipitation Wind Pressure Humidity
    00:00 -3°C° 0 mm 1 mps 695 mmHg 55%
    01:00 -3°C° 0 mm 1 mps 695 mmHg 54%
    02:00 -3°C° 0 mm 1 mps 695 mmHg 54%
    03:00 -3°C° 0 mm 1 mps 695 mmHg 54%
    04:00 -4°C° 0 mm 1 mps 695 mmHg 54%
    05:00 -4°C° 0 mm 1 mps 694 mmHg 53%
    06:00 -4°C° 0 mm 1 mps 694 mmHg 53%
    07:00 -2°C° 0 mm 1 mps 694 mmHg 51%
    08:00 -1°C° 0 mm 1 mps 695 mmHg 50%
    09:00 0°C° 0 mm 1 mps 695 mmHg 48%
    10:00 +1°C° 0 mm 1 mps 694 mmHg 46%
    11:00 +2°C° 0 mm 1 mps 694 mmHg 44%
    12:00 +4°C° 0 mm 1 mps 693 mmHg 42%
    13:00 +4°C° 0 mm 1 mps 693 mmHg 42%
    14:00 +4°C° 0 mm 1 mps 692 mmHg 42%
    15:00 +4°C° 0 mm 1 mps 692 mmHg 42%
    16:00 +3°C° 0 mm 1 mps 692 mmHg 43%
    17:00 +1°C° 0 mm 1 mps 693 mmHg 43%
    18:00 0°C° 0 mm 1 mps 693 mmHg 44%
    19:00 0°C° 0 mm 1 mps 693 mmHg 44%
    20:00 0°C° 0 mm 1 mps 693 mmHg 43%
    21:00 -1°C° 0 mm 1 mps 694 mmHg 42%
    22:00 -1°C° 0 mm 1 mps 693 mmHg 42%
    23:00 -1°C° 0 mm 1 mps 693 mmHg 42%

    27 November, Monday

    Time Temperature Precipitation Wind Pressure Humidity
    00:00 -1°C° 0 mm 1 mps 693 mmHg 41%
    01:00 -1°C° 0 mm 1 mps 693 mmHg 41%
    02:00 -3°C° 0 mm 2 mps 693 mmHg 40%
    03:00 -3°C° 0 mm 2 mps 693 mmHg 40%
    04:00 -3°C° 0 mm 2 mps 693 mmHg 39%
    05:00 -3°C° 0 mm 2 mps 692 mmHg 39%
    06:00 -3°C° 0 mm 2 mps 692 mmHg 38%
    07:00 0°C° 0 mm 1 mps 692 mmHg 38%
    08:00 +1°C° 0 mm 1 mps 693 mmHg 38%
    09:00 +2°C° 0 mm 1 mps 693 mmHg 37%
    10:00 +4°C° 0 mm 1 mps 692 mmHg 36%
    11:00 +5°C° 0 mm 1 mps 692 mmHg 35%
    12:00 +7°C° 0 mm 1 mps 691 mmHg 34%
    13:00 +7°C° 0 mm 1 mps 691 mmHg 34%
    14:00 +7°C° 0 mm 1 mps 691 mmHg 34%
    15:00 +7°C° 0 mm 1 mps 690 mmHg 35%
    16:00 +5°C° 0 mm 1 mps 691 mmHg 35%
    17:00 +4°C° 0 mm 1 mps 691 mmHg 35%
    18:00 +2°C° 0 mm 2 mps 691 mmHg 35%
    19:00 +1°C° 0 mm 2 mps 691 mmHg 35%
    20:00 +1°C° 0 mm 2 mps 691 mmHg 35%
    21:00 +1°C° 0 mm 2 mps 691 mmHg 35%
    22:00 +1°C° 0 mm 2 mps 691 mmHg 35%
    23:00 -1°C° 0 mm 2 mps 691 mmHg 36%
    Show more